[[[{"header":{"parameterUnit":"kt","parameterCategory":2,"dx":1,"dy":1,"la1":30.253999710083008,"la2":30.299108505249023,"lo1":-89.0895004272461,"lo2":-89.04439544677734,"nx":28,"ny":28,"refTime":"2022-09-19T21:00:00:Z","depth":0,"parameterNumber":1,"parameterNumberName":"U-component_of_WINDS"},"data":[0.6124,0.6249,0.6275,0.6431,0.648,0.6591,0.664,0.6705,0.6764,0.6901,0.6985,0.7026,0.7096,0.7204,0.7297,0.7313,0.735,0.7375,0.7389,0.7253,0.7236,0.7219,0.7189,0.7383,0.7384,0.7526,0.7527,0.7528,0.6019,0.6068,0.6159,0.6264,0.6341,0.6332,0.6416,0.6482,0.6582,0.6657,0.6741,0.6865,0.6967,0.7031,0.7134,0.7194,0.7196,0.722,0.7214,0.7225,0.7081,0.7049,0.7217,0.7216,0.7216,0.7216,0.7216,0.7216,0.5834,0.5909,0.5987,0.6086,0.6146,0.6217,0.6293,0.634,0.643,0.654,0.6555,0.667,0.6751,0.6889,0.6943,0.7034,0.7012,0.7047,0.7055,0.7063,0.7066,0.6852,0.7053,0.7053,0.7053,0.7052,0.7052,0,0.5706,0.5722,0.5811,0.5907,0.5981,0.6059,0.6135,0.6184,0.6229,0.6302,0.641,0.6477,0.661,0.6715,0.6819,0.6868,0.6866,0.6871,0.6894,0.6886,0.6865,0.6874,0.6635,0.6864,0.6863,0.6862,0.6861,0.686,0.5519,0.5605,0.57,0.5759,0.5806,0.5902,0.5964,0.5998,0.6063,0.6163,0.6229,0.6335,0.6421,0.6592,0.6649,0.6749,0.6749,0.6833,0.6764,0.6753,0.6747,0.674,0.6748,0.6844,0.6846,0.6848,0.6849,0,0.5411,0.5453,0.5594,0.568,0.5705,0.5793,0.5867,0.5946,0.5983,0.6096,0.6125,0.6185,0.6291,0.6335,0.6467,0.6486,0.6633,0.6632,0.6604,0.6605,0.6682,0.6673,0.6932,0.6966,0.6769,0.6771,0.6772,0,0.5267,0.5379,0.5434,0.5514,0.5639,0.5669,0.5793,0.5838,0.5907,0.5996,0.6002,0.6085,0.6128,0.6218,0.6247,0.6376,0.6401,0.6423,0.6429,0.6421,0.6418,0.6455,0.6444,0.6442,0.6441,0.644,0.6439,0,0.509,0.5253,0.5383,0.5426,0.553,0.5591,0.5638,0.5716,0.5778,0.5865,0.5906,0.6007,0.6061,0.614,0.6175,0.6126,0.6334,0.6275,0.6356,0.6355,0.6398,0.6394,0.6614,0.6437,0.6437,0.6436,0.6436,0,0.4979,0.5065,0.5248,0.5334,0.5375,0.5463,0.5562,0.5646,0.5729,0.5752,0.5822,0.583,0.5947,0.5884,0.6046,0.5972,0.6026,0.6058,0.6065,0.6076,0.6004,0.6119,0.6326,0.6348,0.6089,0.6086,0.6083,0,0.4764,0.4961,0.4987,0.5162,0.5258,0.5255,0.5353,0.5426,0.5465,0.5553,0.5597,0.5698,0.5661,0.5699,0.5774,0.5823,0.5919,0.5812,0.5939,0.5943,0.5913,0.6105,0.6123,0.6276,0.6047,0.6051,0.6054,0,0.4602,0.4726,0.4756,0.4806,0.4906,0.4988,0.5101,0.5208,0.5264,0.5348,0.5442,0.5588,0.5565,0.5628,0.5646,0.5722,0.5855,0.5687,0.569,0.5714,0.6033,0.605,0.6075,0.585,0.5855,0.5859,0.6025,0,0.442,0.4524,0.4606,0.4718,0.4788,0.4901,0.4944,0.5012,0.5021,0.5059,0.5201,0.5275,0.5385,0.5427,0.5438,0.5597,0.5577,0.5552,0.5493,0.5619,0.5675,0.5698,0.5406,0.5404,0.5403,0.5402,0,0,0.4202,0.4352,0.4378,0.4488,0.4548,0.4542,0.4659,0.4718,0.4837,0.4879,0.4847,0.5062,0.5124,0.5293,0.5335,0.5382,0.5414,0.5369,0.5559,0.5577,0.5593,0.5652,0.5675,0.54,0.5399,0.5399,0.5399,0,0.4143,0.4203,0.4318,0.4379,0.447,0.4505,0.4532,0.4623,0.4653,0.4793,0.4787,0.4879,0.5052,0.5116,0.5172,0.535,0.5341,0.5381,0.546,0.5545,0.5564,0.5581,0.5643,0.5664,0.5396,0.5396,0.5396,0,0.399,0.4055,0.4115,0.4252,0.4312,0.4413,0.4361,0.447,0.4546,0.4537,0.4676,0.4723,0.4815,0.4969,0.504,0.5013,0.5271,0.5199,0.5208,0.5217,0.5302,0.5325,0.5345,0.5078,0.5076,0.5075,0,0,0.3933,0.403,0.4111,0.4242,0.428,0.4333,0.4392,0.4406,0.4487,0.4519,0.4579,0.4659,0.476,0.4826,0.4923,0.5087,0.5108,0.5158,0.5173,0.5185,0.52,0.5288,0.5311,0.507,0.507,0.507,0,0,0.3907,0.4004,0.3997,0.4155,0.4231,0.432,0.4399,0.4394,0.4485,0.4477,0.4509,0.4532,0.4677,0.4725,0.4653,0.4902,0.4843,0.4862,0.4866,0.4885,0.49,0.4885,0.4611,0,0,0,0,0,0.3867,0.3991,0.3984,0.4017,0.4192,0.4323,0.4346,0.4373,0.433,0.4392,0.4441,0.4428,0.4692,0.4629,0.4662,0.4742,0.5006,0.5018,0.5028,0.5073,0.5093,0.511,0,0,0,0,0,0,0.3881,0.392,0.3981,0.4075,0.4114,0.4319,0.4251,0.4262,0.4324,0.4319,0.4419,0.4432,0.4459,0.4614,0.4644,0.4718,0.4601,0.5011,0.502,0.5029,0.508,0.5096,0.511,0,0,0,0,0,0.3891,0.3923,0.4195,0.4074,0.4108,0.4174,0.4247,0.4255,0.4304,0.4381,0.4392,0.4319,0.446,0.4487,0.4632,0.4704,0.4581,0.4592,0.5017,0.5025,0.5031,0.5088,0,0,0,0,0,0,0.3899,0.3933,0.4203,0.4214,0.4028,0.4163,0.4184,0.4249,0.4362,0.4375,0.4281,0.4276,0.4463,0.4483,0.4504,0.4698,0.4564,0.4575,0.4582,0.5023,0.5029,0.5034,0,0,0,0,0,0,0.3916,0.3943,0.4209,0.415,0.4155,0.4152,0.4172,0.43,0.4364,0.4256,0.4255,0.4278,0.4432,0.4481,0.4497,0.4696,0.4552,0.4562,0.457,0.4574,0.5028,0.5032,0,0,0,0,0,0,0.3928,0.3951,0.4147,0.4151,0.4156,0.4287,0.4266,0.4444,0.4311,0.4251,0.43,0.4295,0.4431,0.4448,0.4492,0.4684,0.4693,0.4552,0.4559,0.4564,0.4568,0,0,0,0,0,0,0,0.3937,0.3775,0.4134,0.4152,0.4156,0.4321,0.4324,0.4327,0.431,0.4305,0.4301,0.4297,0.4491,0.4503,0.4514,0.4675,0,0,0.4551,0.4556,0,0,0,0,0,0,0,0,0.3766,0.3773,0.4135,0.4137,0.4139,0.4321,0.4324,0.4327,0.4309,0.4305,0.4302,0.4299,0.4494,0.4504,0.4513,0,0,0,0,0,0,0,0,0,0,0,0,0,0,0,0.4135,0.4137,0,0.4322,0.4324,0.4326,0.4308,0.4306,0.4303,0.43,0.4497,0.4505,0.4512,0,0,0,0,0,0,0,0,0,0,0,0,0,0,0,0,0,0,0,0,0,0,0,0,0,0,0,0,0,0,0,0,0,0,0,0,0,0,0,0,0,0,0,0,0,0,0,0,0,0,0,0,0,0,0,0,0,0,0,0,0,0,0,0,0,0,0,0,0]}],[{"header":{"parameterUnit":"kt","parameterCategory":2,"dx":1,"dy":1,"la1":30.253999710083008,"la2":30.299108505249023,"lo1":-89.0895004272461,"lo2":-89.04439544677734,"nx":28,"ny":28,"refTime":"2022-09-19T21:00:00:Z","depth":0,"parameterNumber":2,"parameterNumberName":"V-component_of_WINDS"},"data":[1.1926,1.1931,1.1876,1.1857,1.1805,1.1781,1.1756,1.1717,1.1673,1.1639,1.1611,1.1558,1.1492,1.1445,1.1411,1.1388,1.1376,1.1416,1.1381,1.1253,1.1231,1.1211,1.1204,1.1415,1.1415,1.1519,1.152,1.1521,1.183,1.1778,1.1753,1.1691,1.1668,1.1596,1.1542,1.1528,1.151,1.1457,1.1427,1.1394,1.1361,1.1282,1.1241,1.1241,1.1204,1.1234,1.123,1.122,1.1082,1.1076,1.1263,1.1263,1.1263,1.1263,1.1263,1.1263,1.1638,1.1645,1.1575,1.1547,1.1502,1.1462,1.1459,1.1393,1.1368,1.132,1.1262,1.1242,1.1178,1.1105,1.1068,1.105,1.1008,1.1023,1.1026,1.103,1.104,1.0887,1.1042,1.1041,1.104,1.104,1.1039,0,1.148,1.1434,1.1407,1.1363,1.1341,1.1303,1.1259,1.1256,1.1142,1.1127,1.1101,1.1077,1.103,1.0999,1.0951,1.0909,1.0832,1.0821,1.083,1.0854,1.0881,1.0861,1.0633,1.0816,1.0814,1.0813,1.0811,1.0811,1.1279,1.1295,1.1198,1.1186,1.1149,1.1133,1.1112,1.1011,1.0994,1.0926,1.0937,1.0906,1.0875,1.0845,1.0769,1.0735,1.0697,1.0771,1.0691,1.0714,1.0691,1.0689,1.0688,1.0788,1.0791,1.0793,1.0795,0,1.1169,1.1081,1.1089,1.0992,1.0968,1.099,1.0907,1.0911,1.0848,1.0844,1.0838,1.0739,1.0716,1.0628,1.0587,1.0541,1.0573,1.054,1.0591,1.0578,1.0632,1.0627,1.0833,1.0852,1.0638,1.064,1.0642,0,1.0961,1.0988,1.0853,1.0863,1.0888,1.0784,1.0812,1.076,1.0705,1.0702,1.0602,1.0601,1.0489,1.0475,1.0409,1.042,1.0414,1.0378,1.0359,1.0384,1.0388,1.0372,1.036,1.0323,1.0322,1.0321,1.0321,0,1.0795,1.0757,1.0773,1.075,1.065,1.066,1.062,1.0558,1.054,1.0504,1.049,1.0457,1.0437,1.0412,1.0326,1.0275,1.034,1.0252,1.0303,1.0305,1.032,1.032,1.0527,1.0319,1.0319,1.0319,1.0318,0,1.0611,1.0575,1.0614,1.0526,1.0521,1.0534,1.049,1.0481,1.0424,1.0382,1.0353,1.0275,1.0282,1.0199,1.0205,1.016,1.0147,1.0114,1.0117,1.0109,1.0017,1.014,1.035,1.0366,1.0104,1.0102,1.0101,0,1.0443,1.0459,1.0369,1.041,1.0404,1.0288,1.03,1.0253,1.0198,1.0185,1.0125,1.0114,1.0034,1.0018,1.0033,0.997,1.0028,0.9961,0.9941,0.9941,0.9954,1.0147,1.0198,1.0315,1.0077,1.008,1.0081,0,1.0301,1.0179,1.0194,1.0161,1.0082,1.0079,1.0095,1.006,1.0055,1.0017,1.0025,1.0011,0.9947,0.9924,0.9859,0.9879,0.9986,0.981,0.9806,0.984,1.006,1.0107,1.0127,0.9937,0.994,0.9942,1.0063,0,1.0033,1.0032,1.0067,1.0004,0.9989,1.0012,0.9916,0.9912,0.9848,0.979,0.9804,0.9747,0.9714,0.9717,0.9657,0.9734,0.9706,0.9641,0.9552,0.9682,0.9719,0.9734,0.9504,0.9501,0.9498,0.9496,0,0,0.9891,0.9887,0.979,0.98,0.978,0.966,0.9692,0.966,0.9599,0.9588,0.9537,0.9509,0.9466,0.9493,0.9526,0.9516,0.952,0.948,0.9622,0.9637,0.965,0.9691,0.9709,0.9491,0.949,0.9489,0.9489,0,0.9772,0.9728,0.9762,0.9723,0.9661,0.9598,0.9606,0.9526,0.949,0.9506,0.9407,0.9406,0.939,0.9353,0.9333,0.9474,0.94,0.9473,0.9576,0.9599,0.9617,0.9632,0.9677,0.9695,0.9482,0.9483,0.9483,0,0.9611,0.955,0.9557,0.9508,0.9468,0.9469,0.935,0.9359,0.9358,0.923,0.9247,0.9203,0.915,0.9191,0.9207,0.9161,0.9295,0.924,0.9254,0.9253,0.927,0.9292,0.9312,0.9055,0.9054,0.9053,0,0,0.9521,0.9521,0.9425,0.9476,0.9457,0.9364,0.9356,0.9292,0.9245,0.9228,0.917,0.9129,0.9116,0.9112,0.9097,0.9157,0.9136,0.9191,0.9211,0.9228,0.9236,0.9258,0.928,0.9048,0.9048,0.9048,0,0,0.9479,0.9368,0.9312,0.9359,0.9317,0.9227,0.9262,0.9191,0.9168,0.9155,0.9049,0.9034,0.9071,0.9034,0.8987,0.9063,0.8977,0.8986,0.9086,0.911,0.913,0.9136,0.8859,0,0,0,0,0,0.9308,0.9381,0.9331,0.9325,0.9265,0.9255,0.9247,0.9159,0.9098,0.9127,0.9067,0.899,0.8985,0.8941,0.8938,0.8991,0.8993,0.9003,0.9012,0.9154,0.918,0.9202,0,0,0,0,0,0,0.9305,0.9298,0.9328,0.9244,0.9229,0.9252,0.9128,0.9106,0.9092,0.9077,0.9003,0.8987,0.8914,0.8937,0.8936,0.8987,0.886,0.8997,0.9005,0.9013,0.9163,0.9184,0.9203,0,0,0,0,0,0.9302,0.9296,0.9224,0.9242,0.923,0.913,0.9124,0.9105,0.9093,0.9002,0.8983,0.9028,0.8918,0.8911,0.8936,0.899,0.886,0.886,0.9002,0.9009,0.9015,0.9173,0,0,0,0,0,0,0.9299,0.9279,0.9219,0.9212,0.9208,0.9127,0.9111,0.9105,0.9017,0.8999,0.9021,0.901,0.8922,0.8915,0.891,0.8996,0.8861,0.886,0.886,0.9007,0.9013,0.9017,0,0,0,0,0,0,0.9281,0.9274,0.9216,0.9177,0.9165,0.9125,0.9111,0.9121,0.9018,0.9041,0.9029,0.9017,0.893,0.8919,0.8915,0.8935,0.8861,0.8861,0.8861,0.886,0.9012,0.9016,0,0,0,0,0,0,0.9276,0.927,0.9178,0.9169,0.9158,0.9073,0.9133,0.9078,0.8983,0.9047,0.8972,0.8967,0.8937,0.893,0.8918,0.8941,0.8936,0.8861,0.8861,0.8861,0.8861,0,0,0,0,0,0,0,0.9273,0.9337,0.9261,0.9162,0.9152,0.9147,0.9146,0.9144,0.8982,0.8977,0.8973,0.8969,0.8863,0.8862,0.8862,0.8946,0,0,0.8861,0.8861,0,0,0,0,0,0,0,0,0.9337,0.9337,0.926,0.9259,0.9257,0.9147,0.9146,0.9144,0.8981,0.8977,0.8974,0.8971,0.8863,0.8862,0.8862,0,0,0,0,0,0,0,0,0,0,0,0,0,0,0,0.926,0.9259,0,0.9147,0.9146,0.9144,0.898,0.8977,0.8975,0.8972,0.8863,0.8862,0.8862,0,0,0,0,0,0,0,0,0,0,0,0,0,0,0,0,0,0,0,0,0,0,0,0,0,0,0,0,0,0,0,0,0,0,0,0,0,0,0,0,0,0,0,0,0,0,0,0,0,0,0,0,0,0,0,0,0,0,0,0,0,0,0,0,0,0,0,0,0]}]]]